When you browse on this site, cookies collect data to enhance your experience and personalize the content and advertising you see.
Visit our Privacy Policy to learn more. By continuing to use the site, you agree to this use of cookies and data.
  • In Switzerland
  • List of Countries
  • For 7 days
  • Water Temperature
  • Weather Map
  • Weather Widgets
  • user-avatar
    Login

    Hourly Weather Myrnohrad (Dymytrov)

    Today, 21 February, Friday

    Time Temperature Precipitation Wind Pressure Humidity
    00:00 -2°C° 0 mm 4 mps 747 mmHg 98%
    01:00 -2°C° 0 mm 4 mps 747 mmHg 98%
    02:00 -1°C° 0 mm 4 mps 747 mmHg 98%
    03:00 -1°C° 0 mm 4 mps 747 mmHg 97%
    04:00 -2°C° 0 mm 4 mps 747 mmHg 97%
    05:00 -2°C° 0 mm 4 mps 747 mmHg 96%
    06:00 -2°C° 0 mm 4 mps 747 mmHg 96%
    07:00 -2°C° 0 mm 4 mps 747 mmHg 95%
    08:00 -3°C° 0 mm 4 mps 747 mmHg 93%
    15:00 -1°C° 0.1 mm 4 mps 747 mmHg 97%
    16:00 -1°C° 0.1 mm 4 mps 747 mmHg 97%
    17:00 -1°C° 0.1 mm 4 mps 747 mmHg 97%
    18:00 0°C° 0.1 mm 3 mps 747 mmHg 98%
    19:00 0°C° 0.1 mm 3 mps 747 mmHg 98%
    20:00 0°C° 0.1 mm 3 mps 748 mmHg 98%
    21:00 0°C° 0.1 mm 3 mps 748 mmHg 98%
    22:00 0°C° 0.1 mm 3 mps 748 mmHg 98%
    23:00 0°C° 0.1 mm 3 mps 748 mmHg 98%

    Tomorrow, 22 February, Saturday

    Time Temperature Precipitation Wind Pressure Humidity
    00:00 0°C° 0 mm 3 mps 748 mmHg 98%
    01:00 0°C° 0 mm 3 mps 748 mmHg 98%
    02:00 -1°C° 0 mm 3 mps 748 mmHg 98%
    03:00 -2°C° 0 mm 4 mps 748 mmHg 97%
    04:00 -2°C° 0 mm 4 mps 748 mmHg 97%
    05:00 -2°C° 0 mm 4 mps 748 mmHg 97%
    06:00 -2°C° 0 mm 4 mps 749 mmHg 97%
    07:00 -1°C° 0 mm 3 mps 749 mmHg 96%
    08:00 -1°C° 0 mm 3 mps 749 mmHg 96%
    09:00 0°C° 0 mm 3 mps 750 mmHg 95%
    10:00 -1°C° 0 mm 4 mps 750 mmHg 94%
    11:00 -1°C° 0 mm 4 mps 750 mmHg 93%
    12:00 0°C° 0 mm 3 mps 750 mmHg 94%
    13:00 0°C° 0 mm 3 mps 750 mmHg 94%
    14:00 0°C° 0 mm 3 mps 750 mmHg 95%
    15:00 0°C° 0.1 mm 3 mps 750 mmHg 96%
    16:00 +1°C° 0.1 mm 2 mps 750 mmHg 97%
    17:00 +1°C° 0.1 mm 2 mps 750 mmHg 98%
    18:00 -1°C° 0 mm 2 mps 750 mmHg 98%
    19:00 -1°C° 0 mm 2 mps 750 mmHg 98%
    20:00 -1°C° 0 mm 2 mps 750 mmHg 98%
    21:00 +1°C° 0 mm 1 mps 750 mmHg 98%
    22:00 +1°C° 0 mm 1 mps 749 mmHg 98%
    23:00 +1°C° 0 mm 1 mps 749 mmHg 98%

    Day after tomorrow, 23 February, Sunday

    Time Temperature Precipitation Wind Pressure Humidity
    00:00 +1°C° 0 mm 1 mps 749 mmHg 98%
    01:00 +1°C° 0 mm 1 mps 749 mmHg 98%
    02:00 +1°C° 0 mm 1 mps 748 mmHg 98%
    03:00 +1°C° 0 mm 1 mps 748 mmHg 98%
    04:00 -1°C° 0 mm 2 mps 747 mmHg 97%
    05:00 -1°C° 0 mm 3 mps 747 mmHg 96%
    06:00 -1°C° 0 mm 3 mps 747 mmHg 93%
    07:00 -2°C° 0 mm 4 mps 747 mmHg 90%
    08:00 -2°C° 0 mm 4 mps 746 mmHg 87%
    09:00 -1°C° 0 mm 5 mps 746 mmHg 85%
    10:00 -1°C° 0 mm 5 mps 745 mmHg 82%
    11:00 -1°C° 0 mm 6 mps 745 mmHg 80%
    12:00 -1°C° 0 mm 6 mps 744 mmHg 79%
    13:00 0°C° 0 mm 7 mps 743 mmHg 79%
    14:00 0°C° 0 mm 7 mps 743 mmHg 78%
    15:00 -1°C° 0.3 mm 8 mps 742 mmHg 84%
    16:00 -1°C° 0.3 mm 8 mps 741 mmHg 90%
    17:00 -1°C° 0.3 mm 9 mps 740 mmHg 96%
    18:00 -1°C° 0.4 mm 9 mps 740 mmHg 95%
    19:00 0°C° 0.4 mm 8 mps 740 mmHg 94%
    20:00 0°C° 0.4 mm 8 mps 740 mmHg 93%
    21:00 0°C° 0.1 mm 7 mps 740 mmHg 91%
    22:00 -1°C° 0.1 mm 6 mps 739 mmHg 90%
    23:00 0°C° 0.1 mm 5 mps 739 mmHg 88%

    24 February, Monday

    Time Temperature Precipitation Wind Pressure Humidity
    00:00 0°C° 0 mm 5 mps 739 mmHg 90%
    01:00 0°C° 0 mm 5 mps 739 mmHg 92%
    02:00 -1°C° 0 mm 4 mps 739 mmHg 93%
    03:00 -1°C° 0 mm 4 mps 738 mmHg 94%
    04:00 -1°C° 0 mm 4 mps 737 mmHg 96%
    05:00 -1°C° 0 mm 4 mps 736 mmHg 97%
    06:00 0°C° 0.2 mm 5 mps 735 mmHg 96%
    07:00 -1°C° 0.2 mm 6 mps 734 mmHg 96%
    08:00 -1°C° 0.2 mm 6 mps 733 mmHg 96%
    09:00 0°C° 1.1 mm 8 mps 732 mmHg 96%
    10:00 0°C° 1.1 mm 9 mps 730 mmHg 95%
    11:00 -1°C° 1.1 mm 11 mps 728 mmHg 95%
    12:00 -1°C° 1.6 mm 11 mps 727 mmHg 95%
    13:00 -1°C° 1.6 mm 11 mps 725 mmHg 95%
    14:00 +1°C° 1.6 mm 10 mps 723 mmHg 95%
    15:00 +1°C° 0.6 mm 9 mps 722 mmHg 91%
    16:00 +1°C° 0.6 mm 8 mps 722 mmHg 87%
    17:00 +2°C° 0.6 mm 6 mps 721 mmHg 83%
    18:00 +1°C° 0.1 mm 5 mps 722 mmHg 87%
    19:00 +1°C° 0.1 mm 3 mps 722 mmHg 91%
    20:00 +1°C° 0.1 mm 2 mps 723 mmHg 95%
    21:00 -1°C° 0.6 mm 5 mps 724 mmHg 95%
    22:00 -2°C° 0.6 mm 8 mps 725 mmHg 96%
    23:00 -4°C° 0.6 mm 11 mps 726 mmHg 96%

    25 February, Tuesday

    Time Temperature Precipitation Wind Pressure Humidity
    00:00 -4°C° 0.6 mm 11 mps 728 mmHg 92%
    01:00 -5°C° 0.6 mm 12 mps 729 mmHg 87%
    02:00 -5°C° 0.6 mm 12 mps 731 mmHg 83%
    03:00 -4°C° 0 mm 11 mps 733 mmHg 83%
    04:00 -4°C° 0 mm 11 mps 734 mmHg 82%
    05:00 -4°C° 0 mm 10 mps 736 mmHg 82%
    06:00 -4°C° 0 mm 9 mps 737 mmHg 81%
    07:00 -5°C° 0 mm 9 mps 738 mmHg 79%
    08:00 -5°C° 0 mm 8 mps 740 mmHg 78%
    09:00 -4°C° 0 mm 8 mps 740 mmHg 75%
    10:00 -4°C° 0 mm 8 mps 741 mmHg 71%
    11:00 -2°C° 0 mm 8 mps 742 mmHg 68%
    12:00 -1°C° 0 mm 7 mps 742 mmHg 64%
    13:00 -1°C° 0 mm 7 mps 742 mmHg 61%
    14:00 +1°C° 0 mm 6 mps 742 mmHg 57%
    15:00 0°C° 0 mm 5 mps 742 mmHg 61%
    16:00 -1°C° 0 mm 4 mps 742 mmHg 65%
    17:00 0°C° 0 mm 3 mps 742 mmHg 68%
    18:00 0°C° 0 mm 3 mps 742 mmHg 71%
    19:00 -1°C° 0 mm 3 mps 743 mmHg 73%
    20:00 -1°C° 0 mm 3 mps 743 mmHg 75%
    21:00 -2°C° 0 mm 4 mps 742 mmHg 74%
    22:00 -2°C° 0 mm 4 mps 742 mmHg 74%
    23:00 -2°C° 0 mm 5 mps 742 mmHg 73%

    26 February, Wednesday

    Time Temperature Precipitation Wind Pressure Humidity
    00:00 -2°C° 0 mm 5 mps 741 mmHg 73%
    01:00 -1°C° 0 mm 5 mps 741 mmHg 72%
    02:00 -2°C° 0 mm 6 mps 741 mmHg 72%
    03:00 -2°C° 0 mm 6 mps 740 mmHg 74%
    04:00 -2°C° 0 mm 6 mps 740 mmHg 75%
    05:00 -2°C° 0 mm 7 mps 739 mmHg 77%
    06:00 -2°C° 0 mm 7 mps 739 mmHg 76%
    07:00 -1°C° 0 mm 7 mps 739 mmHg 75%
    08:00 -1°C° 0 mm 8 mps 738 mmHg 74%
    09:00 0°C° 0 mm 8 mps 738 mmHg 69%
    10:00 +1°C° 0 mm 8 mps 738 mmHg 63%
    11:00 +2°C° 0 mm 9 mps 738 mmHg 58%
    12:00 +4°C° 0 mm 8 mps 737 mmHg 59%
    13:00 +4°C° 0 mm 8 mps 737 mmHg 59%
    14:00 +4°C° 0 mm 8 mps 737 mmHg 60%
    15:00 +4°C° 0 mm 7 mps 737 mmHg 63%
    16:00 +3°C° 0 mm 6 mps 736 mmHg 65%
    17:00 +2°C° 0 mm 6 mps 736 mmHg 68%
    18:00 +2°C° 0 mm 6 mps 736 mmHg 72%
    19:00 +2°C° 0 mm 6 mps 736 mmHg 76%
    20:00 +1°C° 0 mm 6 mps 736 mmHg 79%
    21:00 +1°C° 0 mm 6 mps 736 mmHg 82%
    22:00 +1°C° 0 mm 6 mps 736 mmHg 84%
    23:00 +1°C° 0 mm 6 mps 736 mmHg 87%
    Show more